Location: Brienzwiler
(46.7508°N, 8.1014°E)
Time: 16:04:03
(UTC+00:00)

SL-16 R/B - Pass Details

Date: 05 July 2020
Orbit: 985 x 1007 km, 99.5° (Epoch: 11 August)

Event Time Altitude Azimuth Distance (km) Brightness Sun altitude
Exits shadow 23:31:34 - 116° (ESE) 3,306 5.0 -20.6°
Reaches altitude 10° 23:33:18 10° 107° (ESE) 2,768 4.7 -20.6°
Maximum altitude 23:38:05 24° 57° (ENE) 1,945 4.4 -20.6°
Drops below altitude 10° 23:42:54 10° 6° (N) 2,790 6.1 -20.5°
Sets 23:45:51 0° 354° (N) 3,746 7.1 -20.5°
